EW6819 Weather Reports


Display with metric or nautical units.
time (UTC)temp
F
wind
direction
speed
MPH
gust
MPH
rain 1hr
in
rain 24hr
in
rain mn
in
humidity
%
barometer
mb
20260505124212 65 189 9.0 20.0 0.00 0.06 0.06 48 1003.4
20260505123503 66 189 9.0 21.0 0.00 0.06 0.06 48 1003.4
20260505123003 65 186 9.0 21.0 0.00 0.06 0.06 48 1003.2
20260505122503 65 186 10.0 25.0 0.00 0.06 0.06 50 1003.4
20260505122003 64 192 10.0 25.0 0.00 0.06 0.06 49 1003.5
20260505121503 64 187 9.0 18.0 0.00 0.06 0.06 49 1003.4
20260505121003 64 177 8.0 17.0 0.00 0.06 0.06 49 1003.4
20260505120713 64 182 8.0 17.0 0.00 0.06 0.06 50 1003.4
20260505120003 64 170 11.0 23.0 0.00 0.06 0.06 51 1003.5
20260505115713 64 173 11.0 23.0 0.00 0.06 0.06 52 1003.6
20260505115003 63 177 10.0 21.0 0.00 0.06 0.06 51 1003.7
20260505114503 62 175 9.0 19.0 0.00 0.06 0.06 51 1003.6
20260505114003 62 179 8.0 19.0 0.00 0.06 0.06 52 1003.6
20260505113503 62 173 8.0 17.0 0.00 0.06 0.06 53 1003.4
20260505113003 62 167 8.0 15.0 0.00 0.06 0.06 53 1003.4
20260505112503 61 169 8.0 14.0 0.00 0.06 0.06 53 1003.4
20260505112003 61 174 8.0 18.0 0.00 0.06 0.06 54 1003.4
20260505111713 61 174 8.0 18.0 0.00 0.06 0.06 54 1003.4
20260505111003 60 169 7.0 14.0 0.00 0.06 0.06 54 1003.5
20260505110503 60 172 7.0 18.0 0.00 0.06 0.06 54 1003.2
20260505102214 59 184 5.0 15.0 0.00 0.06 0.06 55 1003.1
20260505101503 59 185 5.0 10.0 0.00 0.06 0.06 55 1003.1
20260505101003 59 180 6.0 12.0 0.00 0.06 0.06 55 1003.1
20260505100503 59 177 5.0 12.0 0.00 0.06 0.06 55 1003.0
20260505100003 59 178 4.0 10.0 0.00 0.06 0.06 55 1003.0
20260505095503 59 169 3.0 10.0 0.00 0.06 0.06 55 1003.0
20260505095213 59 169 4.0 9.0 0.00 0.06 0.06 55 1003.0
20260505094503 59 179 4.0 11.0 0.00 0.06 0.06 55 1002.9
20260505094003 58 181 3.0 8.0 0.00 0.06 0.06 55 1002.9
20260505093503 58 172 3.0 7.0 0.00 0.06 0.06 56 1002.9
20260505093003 58 159 3.0 8.0 0.00 0.06 0.06 57 1002.9
20260505092503 58 154 3.0 8.0 0.00 0.06 0.06 57 1002.9
20260505092003 59 157 3.0 7.0 0.00 0.06 0.06 56 1002.8
20260505091712 59 168 3.0 7.0 0.00 0.06 0.06 55 1002.9
20260505091003 59 189 6.0 16.0 0.00 0.06 0.06 55 1003.0
20260505090503 59 191 6.0 17.0 0.00 0.06 0.06 55 1003.1
20260505090003 60 178 6.0 17.0 0.00 0.06 0.06 55 1003.4
20260505085503 59 167 6.0 13.0 0.00 0.06 0.06 54 1003.2
20260505085003 59 167 5.0 10.0 0.00 0.06 0.06 55 1003.4
20260505084503 58 172 5.0 10.0 0.00 0.06 0.06 55 1003.4
20260505084003 58 172 5.0 10.0 0.01 0.06 0.06 55 1003.3
20260505083503 58 169 4.0 10.0 0.01 0.06 0.06 55 1003.3
20260505083003 57 168 3.0 9.0 0.01 0.06 0.06 55 1003.3
20260505082503 57 166 2.0 9.0 0.01 0.06 0.06 55 1003.3
20260505082003 57 185 2.0 5.0 0.01 0.06 0.06 56 1003.2
20260505081503 57 193 2.0 5.0 0.01 0.06 0.06 56 1003.2
20260505081003 57 192 1.0 4.0 0.01 0.06 0.06 56 1003.3
20260505080503 57 199 1.0 6.0 0.01 0.06 0.06 56 1003.3
20260505080003 57 210 2.0 6.0 0.01 0.06 0.06 56 1003.2
20260505075503 56 209 2.0 7.0 0.01 0.06 0.06 57 1003.1
20260505075003 56 203 1.0 7.0 0.01 0.06 0.06 57 1003.1
20260505074503 56 196 1.0 7.0 0.01 0.06 0.06 58 1003.2
20260505074003 56 230 2.0 5.0 0.00 0.05 0.05 58 1003.1
20260505073503 56 235 2.0 6.0 0.01 0.05 0.05 58 1003.2
20260505073003 56 232 2.0 6.0 0.01 0.05 0.05 58 1003.1
20260505072714 56 233 2.0 7.0 0.01 0.05 0.05 59 1003.2
20260505072003 56 204 2.0 7.0 0.01 0.05 0.05 58 1003.1
20260505071503 57 194 1.0 5.0 0.01 0.05 0.05 58 1003.1
20260505071003 57 183 2.0 4.0 0.01 0.05 0.05 58 1003.2
20260505070503 57 193 3.0 9.0 0.01 0.05 0.05 58 1003.4
20260505070003 57 194 3.0 9.0 0.01 0.05 0.05 57 1003.4
20260505065503 58 196 3.0 8.0 0.01 0.05 0.05 56 1003.5
20260505065003 58 195 4.0 9.0 0.01 0.05 0.05 56 1003.8
20260505064503 58 191 6.0 17.0 0.01 0.05 0.05 56 1003.7
20260505064003 58 194 8.0 17.0 0.01 0.05 0.05 55 1003.6
20260505063503 58 185 6.0 16.0 0.00 0.04 0.04 56 1003.8
20260505063003 57 172 3.0 11.0 0.00 0.04 0.04 56 1003.7
20260505062503 56 185 2.0 6.0 0.00 0.04 0.04 56 1003.7
20260505062003 56 182 2.0 5.0 0.00 0.04 0.04 56 1003.6
20260505061503 56 175 2.0 6.0 0.00 0.04 0.04 56 1003.6
20260505061003 56 184 2.0 6.0 0.00 0.04 0.04 56 1003.7
20260505060503 56 200 2.0 4.0 0.00 0.04 0.04 57 1003.7
20260505060003 56 210 2.0 6.0 0.00 0.04 0.04 57 1003.7
20260505055503 56 211 3.0 6.0 0.00 0.04 0.04 57 1003.7
20260505055003 56 218 2.0 6.0 0.00 0.04 0.04 57 1003.7
20260505054503 56 216 2.0 5.0 0.00 0.04 0.04 57 1003.7
20260505054003 56 205 4.0 9.0 0.00 0.04 0.04 57 1003.7
20260505053503 56 205 5.0 9.0 0.00 0.04 0.04 57 1003.8
20260505053003 56 205 4.0 9.0 0.00 0.04 0.04 57 1003.9
20260505052503 56 205 5.0 9.0 0.00 0.04 0.04 58 1003.7
20260505052003 56 208 6.0 12.0 0.00 0.04 0.04 58 1003.8
20260505051503 56 213 5.0 12.0 0.01 0.04 0.04 58 1003.8
20260505051003 56 219 4.0 10.0 0.03 0.04 0.04 59 1003.7
20260505050503 55 226 4.0 10.0 0.04 0.04 0.04 59 1003.8
20260505041503 59 202 10.0 28.0 0.03 0.03 0.03 58 1004.9
20260505041213 60 203 11.0 28.0 0.02 0.02 0.02 57 1004.9
20260505040503 63 197 10.0 23.0 0.00 0.00 0.00 47 1004.7
20260505040004 64 191 8.0 17.0 0.00 0.00 0.00 43 1004.5
20260505035503 64 188 6.0 16.0 0.00 0.00 0.00 41 1004.3
20260505035003 64 183 7.0 18.0 0.00 0.00 0.00 40 1004.1
20260505034712 64 181 6.0 18.0 0.00 0.00 0.00 40 1004.2
20260505034003 64 179 4.0 16.0 0.00 0.00 0.00 39 1004.0
20260505033503 64 176 4.0 12.0 0.00 0.00 0.00 39 1004.1
20260505033003 64 178 5.0 12.0 0.00 0.00 0.00 39 1004.0
20260505032503 64 179 5.0 11.0 0.00 0.00 0.00 38 1004.0
20260505032003 64 176 6.0 14.0 0.00 0.00 0.00 38 1003.9
20260505031503 64 175 6.0 14.0 0.00 0.00 0.00 38 1004.0
20260505031003 63 181 6.0 14.0 0.00 0.00 0.00 38 1004.0
20260505030503 63 190 6.0 11.0 0.00 0.00 0.00 37 1003.9
20260505030003 63 191 6.0 14.0 0.00 0.00 0.00 37 1003.9
20260505025503 63 186 5.0 14.0 0.00 0.00 0.00 36 1004.0
20260505025004 63 190 5.0 10.0 0.00 0.00 0.00 36 1004.0
20260505024503 63 190 5.0 10.0 0.00 0.00 0.00 36 1003.9
20260505024213 63 190 4.0 10.0 0.00 0.00 0.00 36 1004.0
20260505023714 63 184 5.0 11.0 0.00 0.00 0.00 36 1004.0
20260505023213 63 190 5.0 11.0 0.00 0.00 0.00 36 1004.0
20260505022503 63 196 3.0 9.0 0.00 0.00 0.00 36 1004.1
20260505022003 62 197 3.0 7.0 0.00 0.00 0.00 35 1004.1
20260505021503 62 195 4.0 11.0 0.00 0.00 0.00 36 1004.3
20260505021003 62 193 4.0 11.0 0.00 0.00 0.00 35 1004.3
20260505020503 62 193 3.0 7.0 0.00 0.00 0.00 35 1004.3
20260505020003 62 194 2.0 6.0 0.00 0.00 0.00 35 1004.3
20260505015503 62 202 2.0 6.0 0.00 0.00 0.00 34 1004.4
20260505015003 63 201 2.0 6.0 0.00 0.00 0.00 34 1004.3
20260505014503 63 199 3.0 6.0 0.00 0.00 0.00 33 1004.4
20260505014003 64 201 3.0 7.0 0.00 0.00 0.00 32 1004.3
20260505013713 64 199 3.0 7.0 0.00 0.00 0.00 32 1004.3
20260505013003 65 191 4.0 9.0 0.00 0.00 0.00 30 1004.3
20260505012503 65 194 5.0 11.0 0.00 0.00 0.00 30 1004.3
20260505012003 65 201 4.0 11.0 0.00 0.00 0.00 29 1004.2
20260505011503 65 194 4.0 10.0 0.00 0.00 0.00 29 1004.1
20260505011214 65 192 4.0 10.0 0.00 0.00 0.00 29 1004.1
20260505010503 66 192 4.0 9.0 0.00 0.00 0.00 29 1004.0
20260505010214 66 190 4.0 10.0 0.00 0.00 0.00 28 1004.0
20260505005503 66 186 5.0 11.0 0.00 0.00 0.00 27 1004.0
20260505005004 66 190 4.0 9.0 0.00 0.00 0.00 26 1004.0
20260505004503 66 196 3.0 9.0 0.00 0.00 0.00 28 1004.0
20260505004214 66 198 3.0 8.0 0.00 0.00 0.00 26 1004.0
20260505003503 66 201 3.0 9.0 0.00 0.00 0.00 25 1004.0
20260505003003 67 198 5.0 12.0 0.00 0.00 0.00 24 1003.9
20260505002503 67 193 5.0 13.0 0.00 0.00 0.00 24 1003.9
20260505002214 67 192 5.0 13.0 0.00 0.00 0.00 24 1003.8
20260505001503 67 190 4.0 9.0 0.00 0.00 0.00 24 1003.8
20260505001003 67 191 4.0 9.0 0.00 0.00 0.00 23 1003.8
20260505000713 68 192 4.0 9.0 0.00 0.00 0.00 24 1003.8
20260505000003 68 200 4.0 11.0 0.00 0.00 0.00 23 1003.8
20260504235503 68 202 4.0 9.0 0.00 0.00 0.00 23 1003.7
20260504235003 68 198 5.0 12.0 0.00 0.00 0.00 22 1003.7
20260504234503 69 190 6.0 14.0 0.00 0.00 0.00 22 1003.6
20260504234003 69 186 5.0 14.0 0.00 0.00 0.00 20 1003.5
20260504233503 69 189 5.0 10.0 0.00 0.00 0.00 20 1003.4
20260504233003 69 184 6.0 15.0 0.00 0.00 0.00 20 1003.4
20260504232712 69 184 6.0 19.0 0.00 0.00 0.00 20 1003.4
20260504232003 70 195 8.0 19.0 0.00 0.00 0.00 19 1003.4
20260504231503 70 196 8.0 19.0 0.00 0.00 0.00 20 1003.5
20260504231003 70 190 8.0 19.0 0.00 0.00 0.00 19 1003.4
20260504230503 70 186 7.0 14.0 0.00 0.00 0.00 21 1003.4
20260504230003 70 193 6.0 14.0 0.00 0.00 0.00 19 1003.4
20260504225503 70 201 5.0 13.0 0.00 0.00 0.00 20 1003.3
20260504225003 70 197 6.0 15.0 0.00 0.00 0.00 19 1003.4
20260504224503 71 198 6.0 15.0 0.00 0.00 0.00 18 1003.3
20260504224003 70 193 6.0 16.0 0.00 0.00 0.00 20 1003.3
20260504223714 70 195 6.0 16.0 0.00 0.00 0.00 21 1003.3
20260504223003 71 216 5.0 11.0 0.00 0.00 0.00 20 1003.3
20260504222503 71 217 5.0 15.0 0.00 0.00 0.00 20 1003.3
20260504222003 71 207 6.0 15.0 0.00 0.00 0.00 19 1003.2
20260504221714 70 206 6.0 15.0 0.00 0.00 0.00 19 1003.3
20260504221003 70 200 6.0 12.0 0.00 0.00 0.00 19 1003.3
20260504220503 70 196 5.0 12.0 0.00 0.00 0.00 18 1003.4
20260504220213 70 206 5.0 11.0 0.00 0.00 0.00 18 1003.4
20260504215714 70 205 5.0 15.0 0.00 0.00 0.00 18 1003.4
20260504215003 71 205 5.0 15.0 0.00 0.00 0.00 19 1003.4
20260504214503 71 203 6.0 17.0 0.00 0.00 0.00 20 1003.5
20260504214003 71 190 7.0 17.0 0.00 0.00 0.00 19 1003.5
20260504213503 71 181 7.0 20.0 0.00 0.00 0.00 19 1003.5
20260504213003 71 187 6.0 20.0 0.00 0.00 0.00 20 1003.5
20260504212503 71 196 6.0 15.0 0.00 0.00 0.00 20 1003.6
20260504212003 71 189 5.0 15.0 0.00 0.00 0.00 20 1003.6
20260504211503 71 188 3.0 12.0 0.00 0.00 0.00 21 1003.5
20260504211003 71 183 7.0 17.0 0.00 0.00 0.00 20 1003.6
20260504210503 70 183 8.0 17.0 0.00 0.00 0.00 21 1003.6
20260504210003 70 176 9.0 19.0 0.00 0.00 0.00 20 1003.5
20260504205503 71 168 10.0 19.0 0.00 0.00 0.00 19 1003.5
20260504205213 71 165 9.0 19.0 0.00 0.00 0.00 23 1003.4
20260504204503 71 182 6.0 14.0 0.00 0.00 0.00 21 1003.6
20260504204003 71 196 5.0 14.0 0.00 0.00 0.00 21 1003.7
20260504203503 71 194 7.0 18.0 0.00 0.00 0.00 22 1003.9
20260504203003 71 209 8.0 18.0 0.00 0.00 0.00 23 1003.9
20260504202503 71 219 7.0 16.0 0.00 0.00 0.00 22 1003.8
20260504202003 71 198 6.0 15.0 0.00 0.00 0.00 23 1004.0
20260504201503 71 181 7.0 14.0 0.00 0.00 0.00 22 1004.1
20260504201003 71 193 7.0 18.0 0.00 0.00 0.00 23 1004.2
20260504200503 70 190 7.0 18.0 0.00 0.00 0.00 24 1004.3
20260504200003 70 179 8.0 16.0 0.00 0.00 0.00 25 1004.2
20260504195503 70 191 7.0 16.0 0.00 0.00 0.00 23 1004.4
20260504195003 70 216 6.0 14.0 0.00 0.00 0.00 26 1004.4
20260504194503 70 243 5.0 14.0 0.00 0.00 0.00 26 1004.4
20260504194214 70 238 5.0 14.0 0.00 0.00 0.00 25 1004.5
20260504193503 70 212 4.0 12.0 0.00 0.00 0.00 29 1004.6
20260504193214 70 199 5.0 16.0 0.00 0.00 0.00 26 1004.7
20260504192503 70 191 8.0 18.0 0.00 0.00 0.00 25 1004.7
20260504192003 70 189 8.0 18.0 0.00 0.00 0.00 28 1004.6
20260504191713 69 193 8.0 18.0 0.00 0.00 0.00 28 1004.8
20260504191003 68 199 7.0 20.0 0.00 0.00 0.00 27 1004.8
20260504190504 69 213 6.0 17.0 0.00 0.00 0.00 28 1004.8
20260504190003 69 208 7.0 16.0 0.00 0.00 0.00 27 1004.9
20260504185503 70 191 9.0 20.0 0.00 0.00 0.00 26 1004.9
20260504185003 70 177 9.0 20.0 0.00 0.00 0.00 28 1004.9
20260504184503 71 189 7.0 14.0 0.00 0.00 0.00 30 1005.0
20260504184003 70 222 7.0 19.0 0.00 0.00 0.00 32 1005.0
20260504183503 70 233 8.0 19.0 0.00 0.00 0.00 30 1005.0
20260504183003 70 233 9.0 20.0 0.00 0.00 0.00 28 1005.1
20260504182503 69 209 10.0 23.0 0.00 0.00 0.00 28 1005.2
20260504182003 69 210 8.0 23.0 0.00 0.00 0.00 27 1005.1
20260504181503 70 209 9.0 27.0 0.00 0.00 0.00 32 1005.2
20260504181213 69 205 9.0 27.0 0.00 0.00 0.00 32 1005.2
20260504180503 69 205 9.0 20.0 0.00 0.00 0.00 34 1005.2
20260504180003 68 203 9.0 20.0 0.00 0.00 0.00 32 1005.2
20260504175503 68 189 9.0 23.0 0.00 0.00 0.00 30 1005.4
20260504175003 67 201 10.0 23.0 0.00 0.00 0.00 30 1005.4
20260504174503 67 213 10.0 21.0 0.00 0.00 0.00 32 1005.4
20260504174213 67 218 9.0 21.0 0.00 0.00 0.00 32 1005.4
20260504173503 68 207 8.0 21.0 0.00 0.00 0.00 35 1005.5
20260504173003 68 212 9.0 21.0 0.00 0.00 0.00 33 1005.5
20260504172503 68 207 8.0 15.0 0.00 0.00 0.00 35 1005.4
20260504172003 67 199 8.0 17.0 0.00 0.00 0.00 37 1005.3
20260504171504 67 208 8.0 23.0 0.00 0.00 0.00 33 1005.5
20260504171003 67 201 8.0 23.0 0.00 0.00 0.00 34 1005.5
20260504170503 67 201 9.0 20.0 0.00 0.00 0.00 34 1005.7
20260504151003 60 167 12.0 23.0 0.00 0.00 0.00 37 1006.3
20260504150503 61 174 10.0 23.0 0.00 0.00 0.00 37 1006.6
20260504141003 58 192 13.0 24.0 0.00 0.00 0.00 42 1006.6
20260504140503 58 187 12.0 24.0 0.00 0.00 0.00 39 1006.7
20260504130713 54 197 10.0 25.0 0.00 0.00 0.00 43 1007.3